Regional Weather Roundup
Issued by NWS

Home | Current Version | Previous Version | Text Only | Print | Product List | Glossary Off
Versions: 1 2 3 4 5 6 7 8 9 10 11 12 13 14 15 16 17 18 19 20 21 22 23 24 25 26 27 28 29 30 31 32 33 34 35 36 37 38 39 40 41 42 43 44 45 46 47 48 49 50

249
ASUS44 KJAN 280403
RWRMS

MISSISSIPPI HOURLY WEATHER ROUNDUP
NATIONAL WEATHER SERVICE JACKSON MS
1100 PM CDT WED AUG 27 2014

NOTE: "FAIR: INDICATES FEW OR NO CLOUDS BELOW 12,000 FEET WITH NO
SIGNIFICANT WEATHER AND/OR OBSTRUCTIONS TO VISIBILITY.

MSZ001>002-007>008-010>013-018>021-025>028-034>036-280500-
NORTHWEST MISSISSIPPI

CITY           SKY/WX    TMP DP  RH WIND       PRES   REMARKS
CLARKSDALE     FAIR      73  72  94 CALM      30.03S
CLEVELAND      FAIR      75  72  88 CALM      30.01S
GREENWOOD      CLEAR     72  69  90 CALM      30.01S
GREENVILLE     CLEAR     75  69  81 NE3       30.00F
GRENADA        FAIR      70  68  94 CALM      30.03S
OLIVE BRANCH   CLEAR     75  73  94 CALM      30.05S
OXFORD         FAIR      68  66  94 CALM      30.06S
TUNICA         CLEAR     73  68  83 CALM      30.03S
$$

MSZ003>006-009-014>017-022>024-029>033-037>039-280500-
NORTHEAST MISSISSIPPI

CITY           SKY/WX    TMP DP  RH WIND       PRES   REMARKS
BELMONT        FAIR      72  70  92 CALM      30.05F
COLUMBUS AFB   PTCLDY    73  68  82 CALM      30.03S
CORINTH        FAIR      72  70  94 CALM      30.04S
GOLDN TRIANGLE PTCLDY    73  64  73 N3        30.03F
STARKVILLE     FAIR      72  64  78 CALM      30.03S
TUPELO         CLEAR     73  68  84 N3        30.04S
$$

MSZ040-058-280500-
CENTRAL MISSISSIPPI

CITY           SKY/WX    TMP DP  RH WIND       PRES   REMARKS
JACKSON INTL   CLEAR     73  67  81 CALM      30.01S
JACKSON HAWKNS CLEAR     77  66  68 CALM      30.02R
MERIDIAN KEY   PTCLDY    71  65  81 CALM      30.02S
MERIDIAN NAS   PTCLDY    73  65  75 CALM      30.02S
RAYMOND        FAIR      72  66  83 CALM      30.01S
VICKSBURG      CLEAR     70  68  93 N3        30.01R
$$

MSZ059>079-280500-
SOUTH MISSISSIPPI

CITY           SKY/WX    TMP DP  RH WIND       PRES   REMARKS
BROOKHAVEN     FAIR      75  72  88 S3        30.04S
COLUMBIA       FAIR      75  73  94 CALM      30.01R
HATTIESBURG    CLEAR     77  72  84 CALM      30.02R
MCCOMB         PTCLDY    78  72  81 CALM      30.02S
NATCHEZ        PTCLDY    79  72  78 SE5       30.01S
PINE BELT      CLEAR    N/A N/A N/A SW3       30.03S
$$

MSZ080>082-280500-
COASTAL MISSISSIPPI

CITY           SKY/WX    TMP DP  RH WIND       PRES   REMARKS
BILOXI         PTCLDY    83  72  69 CALM      30.00S
PASCAGOULA     PTCLDY    74  73  97 CALM      30.00S
GULFPORT       MOCLDY    78  74  87 CALM      30.00S
$$



USA.gov is the U.S. government's official web portal to all federal, state and local government web resources and services.